Location: Mahannah Oil Field
(37.4664°N, 96.6003°W)
Time: 01:40:48
(UTC+00:00)

deb Explorer IX - Pass Details

Date: 22 January 2021
Orbit: 537 x 1102 km, 38.8° (Epoch: 25 February)

Event Time Altitude Azimuth Distance (km) Brightness Sun altitude
Rises 00:13:40 0° 229° (SW) 3,707 ? -7.2°
Reaches altitude 10° 00:16:36 10° 223° (SW) 2,679 ? -7.8°
Maximum altitude 00:22:37 43° 154° (SSE) 1,181 ? -8.9°
Enters shadow 00:27:28 12° 85° (E) 2,198 ? -9.8°
Drops below altitude 10° 00:27:48 10° 84° (E) 2,307 - -9.9°
Sets 00:30:10 0° 77° (ENE) 3,145 - -10.3°
